Weather in Proletarka

Russia / Rostov Oblast     47°52′59″N   40°11′53″E
temp.,
°C
wind,
m/s
gust,
m/s
humid.,
%
clouds,
%
prec.,
mm/h
press.,
hPa
HPBL,
m
25 february, thu
thu2500:00−13s357979 0.0 1039249
03:00−13s467984 0.0 1038235
06:00−13s357971 0.0 1037180
09:00−11ssw467286 0.0 1036239
12:00−7ssw586497 0.0 1034330
15:00−5sw695998 0.0 1032445
18:00−5sw51169100 0.0 1030289
21:00−3wsw81377100 0.0 1028320
26 february, fri
fri2600:00−2wsw81488100 0.1 1026323
03:00−1w71294100 0.2 1025335
06:00+1w61296100 0.1 1024291
09:00+1w51197100 0.3 1024312
12:00+4w5997100 0.0 1023337
15:00+5w61094100 0.0 1022463
18:00+3wsw4996100 0.0 1021267
21:00+2wsw6129792 0.0 1020312
27 february, sat
sat2700:00+3wsw7139598 0.0 1018510
03:00+2w7129799 0.0 1017563
06:00+3w61295100 0.1 1015378
09:00+3wsw61194100 0.1 1015357
12:00+5w71186100 0.0 1014830
15:00+5w51086100 0.1 1013698
18:00+3w51191100 0.0 1012376
21:00+2w4987100 0.1 1013251
28 february, sun
sun2800:00+1wnw389295 0.0 1012235
03:000wnw389494 0.1 1012210
06:000nw359775 0.1 1012222
09:00+1nw459087 0.2 1013366
12:00+1nw458697 0.1 1014551
15:00+2nnw568697 0.3 1015621
18:00+1n3787100 0.1 1016481
21:00−1nnw3794100 0.2 1019345
1 march, mon
mon100:00−2n478595 0.1 1021519
03:00−2nnw478797 0.1 1023572
06:00−3nnw478499 0.0 1024581
09:00−2nnw5775100 0.1 1026762
12:00−1n5669100 0.0 1027861
15:00+1n566199 0.0 10281065
18:00−1nnw477087 0.0 1029652
21:00−2n377386 0.0 1031425